Wind_Speed
8 7 7 9 9 11 12 12 10 4 2 3 3 5 5 6 5 2 2 2 3 6 8 8 10 11 11 12 10 9 9 10 11 12 13 14 17 17 17 17 18 18 18 19 20 23 24 24 22 20 18 18 19 19 20 21 22 24 25 25 26 26 26 26 25 25 26 27 26 25 25 25 22 22 21 19 18 18 18 17 16 15 15 15 15 15
7 7 8 11 9 7 8 9 7 4 4 6 6 6 6 7 5 3 2 3 2 4 7 6 8 10 11 13 13 9 10 11 13 13 14 16 17 18 19 19 19 18 17 18 21 22 23 22 23 21 18 19 20 19 21 23 24 24 24 25 26 27 28 28 27 26 27 28 27 25 26 25 23 22 21 18 18 19 18 18 17 16 15 15 15 14
7 9 11 10 5 3 5 6 7 7 7 7 6 7 7 5 4 2 3 3 3 3 5 6 7 8 11 14 14 11 10 12 14 15 16 18 19 20 20 19 19 19 18 21 22 22 23 22 23 22 19 21 22 19 21 23 23 23 23 23 24 25 27 29 28 27 28 28 26 24 25 25 23 22 20 17 17 18 18 18 17 17 16 15 14 14
6 6 9 9 6 6 7 6 8 7 6 7 6 6 6 4 3 3 5 5 3 5 7 9 8 8 11 12 14 14 14 13 14 16 17 19 20 21 20 18 18 20 22 24 24 24 24 22 23 23 20 20 21 19 20 22 22 22 22 22 24 25 26 25 27 29 28 26 26 26 25 23 21 21 19 16 16 17 17 18 17 16 15 14 13 13
5 2 3 7 9 9 9 8 9 7 6 8 8 8 8 5 5 5 4 3 6 8 8 9 8 8 11 13 13 11 12 13 13 14 15 17 19 19 20 19 20 22 24 25 25 26 26 24 22 22 21 19 20 21 21 22 21 21 22 22 24 27 26 23 25 28 27 26 28 27 23 21 19 18 17 16 16 17 17 17 16 14 13 12 11 11
6 6 6 8 10 11 11 9 10 9 7 8 9 11 11 10 9 10 8 5 7 7 7 6 7 6 7 10 10 7 9 11 11 10 11 12 15 18 20 22 22 23 23 23 24 24 25 24 22 21 20 19 20 21 22 22 21 22 23 24 26 27 26 24 23 26 27 27 28 26 24 24 23 19 18 19 19 18 17 15 13 12 11 11 11 10
5 6 7 8 8 11 11 9 10 10 8 7 4 6 9 11 11 9 7 5 6 4 4 5 7 5 5 7 9 8 8 10 9 6 5 6 10 15 20 23 23 22 22 21 20 21 23 22 22 21 19 21 24 23 23 24 24 24 25 25 26 25 25 24 22 25 27 27 27 27 27 26 25 22 21 21 21 18 16 14 13 12 11 11 11 10
6 8 8 8 8 9 9 7 8 9 9 4 2 1 7 8 8 7 7 7 5 3 3 7 7 6 7 7 8 8 9 11 8 4 2 2 5 10 15 19 20 19 19 18 16 18 20 18 19 21 21 26 32 30 27 27 27 27 26 27 27 26 24 20 20 25 28 27 26 26 26 25 24 23 22 21 20 18 16 14 14 13 12 11 10 10
8 10 10 11 10 7 7 7 6 8 9 5 2 1 5 4 5 6 6 6 4 3 5 9 8 7 7 6 7 8 12 12 7 3 1 2 4 7 10 14 17 17 15 15 14 16 19 18 19 22 24 27 29 29 28 26 26 26 26 28 29 27 23 19 20 25 26 26 25 24 22 22 21 20 20 19 17 17 15 14 14 13 12 11 11 10
6 6 7 10 10 7 9 10 8 9 9 4 1 4 4 4 4 5 5 5 4 5 8 9 9 7 7 7 7 8 10 7 2 2 2 4 5 4 7 10 14 16 14 14 14 14 16 19 20 21 21 22 22 22 22 18 17 20 21 26 30 26 19 19 23 23 23 24 23 22 20 20 19 17 17 16 16 16 15 15 15 14 12 12 11 10
6 3 3 7 8 6 7 7 7 10 8 2 3 7 6 5 4 4 5 4 4 7 10 9 8 7 8 7 3 2 2 2 3 3 4 6 4 2 6 9 12 14 13 14 14 13 14 15 17 16 14 17 19 18 17 14 13 16 18 20 25 26 18 18 22 23 23 22 20 20 20 19 18 16 17 17 16 16 16 15 15 14 13 11 11 11
7 6 4 6 8 5 4 4 5 7 7 5 6 7 6 5 4 5 5 4 7 8 5 4 6 8 9 6 1 4 3 3 4 4 6 6 3 1 4 9 11 11 11 12 13 13 12 11 12 13 14 16 17 15 14 14 14 17 17 14 15 20 17 17 23 24 21 20 19 20 20 18 19 19 19 19 17 17 17 17 16 15 13 12 11 11
8 8 8 8 9 8 7 5 6 6 7 7 7 7 7 6 5 6 7 6 8 5 3 4 5 7 9 3 3 4 3 4 4 5 6 6 3 2 4 8 10 11 11 11 13 13 12 11 12 14 17 18 17 14 10 7 5 7 10 11 10 12 11 14 24 24 20 19 19 20 20 20 21 22 20 18 17 18 17 16 16 15 15 14 12 11
7 9 11 10 9 11 11 7 6 7 8 9 8 7 8 7 6 7 7 7 8 4 4 3 3 7 9 1 5 4 4 5 5 5 5 5 4 3 5 7 9 11 11 11 12 12 12 14 14 13 15 15 15 14 10 6 5 4 4 5 3 5 6 12 21 23 22 21 19 19 20 21 21 22 20 17 17 17 15 16 16 15 15 13 12 11
8 7 9 11 8 11 14 11 8 6 7 10 9 8 8 7 6 6 6 6 7 4 3 4 4 6 7 1 4 3 4 4 4 4 3 2 2 3 6 8 9 10 10 10 10 10 11 13 13 11 11 11 10 11 11 12 11 7 3 2 2 3 7 13 20 23 23 23 21 20 21 21 21 21 20 17 16 16 15 17 16 15 14 12 11 10
9 5 7 9 4 8 14 14 12 9 6 7 7 8 8 7 6 4 2 2 3 3 3 5 4 4 1 3 2 1 3 3 3 3 2 2 3 4 6 7 8 9 9 8 8 8 10 11 12 12 11 11 9 10 11 12 10 7 5 3 3 5 9 15 22 23 23 23 22 22 23 23 22 21 20 18 17 16 16 17 17 16 14 12 12 11
7 4 6 8 5 8 10 10 13 12 6 4 6 8 6 5 6 5 1 2 1 6 4 4 6 4 3 4 3 3 4 2 2 2 2 4 4 3 4 5 6 6 6 7 8 9 9 10 10 11 11 11 11 11 8 6 7 9 7 5 8 11 13 16 22 24 23 23 23 24 24 24 23 21 21 20 18 18 18 17 17 16 14 13 12 12
6 4 7 8 8 9 6 5 10 12 8 5 5 6 4 3 5 5 4 3 5 7 4 4 7 6 4 2 2 4 4 2 1 2 3 4 4 3 3 4 6 7 6 6 8 8 9 10 10 10 9 9 10 11 9 7 8 8 8 9 11 15 17 19 23 25 23 23 25 25 25 25 23 21 20 20 20 20 20 18 16 15 13 13 13 12
4 5 6 6 5 8 7 6 7 9 11 8 4 3 3 4 6 6 6 6 6 7 5 5 7 7 4 2 4 5 3 2 2 2 3 3 3 3 3 6 8 8 8 7 8 9 9 9 9 10 10 8 9 11 12 12 13 13 13 13 12 14 19 22 25 26 25 26 26 25 26 25 23 22 20 20 21 21 20 18 17 15 14 13 12 12
4 6 4 5 5 6 7 7 7 8 10 9 6 5 5 4 5 5 5 6 6 6 6 5 5 3 1 1 3 4 2 2 2 2 2 3 3 3 4 6 7 7 7 6 6 7 8 7 8 9 10 9 8 10 13 16 15 14 14 15 15 17 23 27 28 29 28 28 27 26 27 25 24 22 20 20 22 21 20 18 18 16 14 13 12 11
4 5 4 5 7 6 6 6 6 6 8 9 8 8 7 5 4 4 4 5 6 6 5 5 4 2 4 4 3 4 4 3 2 2 3 3 3 2 4 6 5 5 5 4 4 5 5 5 5 7 10 10 8 9 13 15 14 13 14 16 18 21 26 30 31 31 31 30 29 28 27 26 25 22 19 20 21 21 20 19 18 16 14 13 12 10
5 5 6 5 6 7 5 3 1 2 3 6 7 8 8 7 5 6 6 6 6 6 4 5 5 2 4 3 2 4 3 2 2 2 3 4 3 3 5 6 5 5 5 4 3 3 3 2 2 8 12 10 8 9 11 12 11 13 14 15 18 22 27 30 31 31 31 31 30 28 28 26 25 23 21 21 21 20 20 19 17 15 14 13 11 10
1 3 6 7 7 5 4 7 4 2 1 4 5 6 6 7 6 7 7 5 5 6 4 5 6 1 3 2 1 3 2 2 3 3 4 6 8 7 7 8 8 8 7 6 4 3 2 2 2 8 11 7 6 8 10 10 10 12 14 15 17 22 26 28 28 28 28 30 30 29 29 26 25 24 23 22 21 20 20 18 16 15 14 13 11 10
1 4 6 7 7 4 5 6 4 1 3 5 4 2 4 6 5 5 6 5 4 6 5 6 6 1 2 1 2 3 3 4 5 5 5 9 11 9 8 9 10 9 8 6 4 3 1 1 2 4 5 4 5 8 11 10 9 11 14 14 16 21 26 28 27 26 27 30 31 29 28 25 24 25 24 23 21 20 19 18 16 15 15 13 11 10
3 5 6 6 7 7 6 6 6 5 5 4 2 1 2 5 5 5 6 6 6 7 7 7 4 2 3 2 3 4 5 7 9 11 11 11 10 8 8 10 10 8 5 4 3 2 2 1 2 2 2 3 5 8 13 11 9 11 13 14 16 20 24 25 26 26 26 28 29 27 25 25 25 25 24 22 21 22 21 18 16 16 14 12 11 11
3 2 5 7 8 8 7 5 4 4 5 3 3 3 3 3 4 5 5 7 7 7 8 8 3 3 4 3 4 5 7 8 10 11 10 10 9 9 9 9 8 6 3 3 2 2 4 3 2 3 4 5 5 9 14 11 10 12 15 17 19 20 22 22 23 25 24 22 22 22 23 26 26 25 23 21 22 23 22 19 17 16 14 12 12 12
2 1 2 5 5 3 2 2 3 3 3 4 3 4 4 4 3 5 5 5 5 5 7 6 4 7 6 6 7 7 7 7 7 9 8 9 10 11 11 10 9 7 5 5 3 2 3 2 2 5 8 8 7 10 12 10 8 10 13 17 17 17 20 21 21 22 21 20 19 19 21 24 25 23 21 21 23 23 21 19 19 17 15 14 14 14
3 4 5 4 3 4 5 4 3 3 2 4 4 4 5 6 3 4 4 2 4 5 5 2 6 10 7 5 6 8 7 6 7 8 8 8 10 10 11 11 11 10 9 9 8 6 6 6 7 9 11 12 12 12 12 11 10 9 11 14 15 15 17 18 18 17 18 19 19 18 20 22 24 23 22 21 22 22 20 20 20 18 16 16 16 15
3 4 7 7 2 2 3 3 3 4 6 7 7 7 7 7 5 2 2 5 6 2 2 1 4 8 8 7 7 8 8 7 8 9 8 10 10 10 10 11 13 13 12 11 11 9 8 9 10 11 13 14 16 15 13 14 15 15 14 13 13 13 13 14 16 17 17 18 17 17 20 21 22 23 23 23 22 21 22 22 20 19 18 17 15 14
2 3 7 9 6 4 3 2 2 4 7 9 8 8 7 6 6 6 6 7 6 3 3 4 8 10 8 6 7 8 9 10 10 11 10 11 11 11 11 12 13 13 12 12 11 10 10 10 10 11 12 13 16 17 16 15 16 16 18 18 16 16 16 16 16 16 16 16 15 15 18 20 21 21 21 23 24 23 24 23 21 20 19 18 16 15
4 2 5 8 7 6 5 4 3 4 7 10 10 9 8 5 6 6 7 6 5 2 5 6 8 7 5 6 8 8 8 10 11 12 12 12 11 11 12 13 13 13 13 12 11 10 11 11 11 12 11 11 13 15 16 16 15 14 16 17 17 18 19 18 17 16 16 15 14 14 16 18 19 18 20 23 24 24 23 23 23 21 15 13 14 13
4 1 1 6 6 5 5 7 6 4 5 8 10 12 10 7 6 5 6 6 6 4 2 4 4 4 3 6 9 9 10 11 12 13 12 12 12 12 13 13 13 13 13 12 11 11 11 12 13 14 14 15 16 16 16 15 15 15 14 14 14 14 14 14 14 14 16 15 14 13 14 16 16 17 20 22 23 24 25 25 23 15 7 9 12 12
1 1 2 5 4 5 6 7 6 4 3 2 6 9 8 7 7 5 4 6 9 7 3 1 3 5 5 6 8 8 10 11 12 12 11 11 12 12 13 14 13 13 13 13 12 11 11 12 13 15 16 18 19 19 17 13 13 16 16 15 14 12 12 13 13 13 13 11 11 11 11 12 12 15 19 21 23 25 24 22 17 11 10 11 12 12
2 4 3 2 2 4 6 6 6 4 2 2 3 7 7 5 8 7 4 7 8 7 4 4 6 7 6 6 8 9 10 12 12 12 11 10 11 12 13 14 14 13 13 13 13 12 12 13 14 16 18 19 19 21 20 15 14 17 18 15 14 12 12 14 13 12 11 9 9 10 11 11 11 13 16 18 21 21 17 14 12 10 10 11 10 10
3 5 3 2 1 3 6 5 5 2 1 3 2 7 7 3 7 7 3 6 8 5 4 6 7 7 8 10 12 13 14 15 15 15 14 12 11 12 14 15 15 14 15 15 15 15 15 15 17 19 21 21 21 22 22 18 17 18 18 16 14 13 14 14 13 13 13 12 11 11 11 10 10 12 14 15 15 14 12 11 11 10 10 10 10 10
3 4 3 2 0 3 5 3 2 4 4 3 3 7 8 3 6 6 0 5 9 6 2 6 7 8 11 13 14 15 15 17 19 19 16 13 12 13 14 16 16 17 19 21 21 22 22 21 21 22 24 24 24 24 21 18 16 16 16 15 14 15 16 16 16 17 17 15 13 12 11 11 11 12 12 12 11 11 11 10 10 9 9 9 9 9
5 4 3 3 1 1 3 4 4 6 5 5 4 6 7 3 4 4 1 3 7 7 2 6 8 9 11 12 14 15 13 14 16 16 15 13 13 15 17 18 20 23 26 28 28 28 28 27 27 27 26 26 26 24 22 20 17 16 18 20 19 18 18 18 19 19 18 16 14 13 12 11 11 12 11 11 10 10 10 10 10 9 9 9 10 10
5 5 4 2 2 2 3 6 4 4 4 6 7 7 7 5 4 3 3 1 5 6 3 5 8 9 11 12 12 11 6 6 8 9 10 11 12 14 17 18 20 23 27 27 27 27 28 28 27 27 26 26 27 25 22 22 22 22 24 26 26 23 21 21 22 21 19 17 16 14 13 12 11 11 10 9 9 10 10 10 10 10 9 9 9 8
3 4 4 2 3 2 3 4 3 2 3 6 9 9 9 6 2 3 2 1 5 6 2 4 6 9 12 12 9 4 2 1 4 4 6 10 12 15 17 20 21 24 25 25 25 25 25 25 25 25 24 23 24 23 21 21 23 25 26 27 26 25 24 23 23 22 20 18 17 15 14 13 13 12 11 10 9 9 9 8 7 7 7 6 6 7
6 2 2 3 4 3 4 5 4 4 3 8 11 10 10 5 3 4 1 2 6 7 1 4 7 11 12 9 3 2 3 1 7 9 10 12 15 18 21 23 23 23 23 22 22 22 22 22 22 23 24 22 21 19 18 17 19 22 24 24 24 25 24 22 21 20 19 18 16 15 14 13 12 12 11 11 10 9 8 7 6 5 6 5 5 5
6 5 3 5 6 6 7 6 4 3 4 10 13 11 9 3 4 1 2 3 8 8 1 5 8 10 7 2 1 3 5 9 15 17 15 15 16 18 19 21 21 20 20 19 17 17 18 18 18 20 21 21 20 18 17 15 15 17 19 20 21 22 21 19 18 18 17 16 15 14 13 11 10 10 9 9 8 7 6 4 3 3 3 3 3 4
3 4 5 6 5 5 6 6 4 4 6 15 16 11 8 3 2 2 6 6 6 3 5 7 7 6 1 2 6 12 16 19 20 17 14 13 14 15 16 19 20 19 19 19 17 16 16 17 17 17 17 17 18 18 17 15 14 14 15 15 17 18 17 16 15 15 15 14 13 13 12 11 10 8 7 7 6 5 4 3 2 2 2 3 3 4
4 2 5 6 4 4 5 5 5 4 8 19 16 7 7 6 2 3 7 6 6 6 6 8 6 4 5 10 16 18 19 19 16 14 13 13 14 17 18 19 19 19 19 19 18 17 17 17 16 17 17 17 17 16 16 15 14 13 13 14 15 15 14 14 13 12 11 11 10 10 9 8 8 6 6 5 5 4 4 3 3 3 4 4 5 6
7 4 4 3 4 2 4 5 4 1 7 15 12 6 6 7 4 4 3 4 7 7 7 11 11 9 12 17 18 17 17 16 14 13 14 15 16 17 17 17 18 18 18 18 18 17 17 18 17 17 17 17 17 16 15 15 13 12 11 13 13 12 11 11 10 9 9 8 7 7 6 6 5 4 4 3 3 3 2 2 2 2 2 3 3 4
7 7 8 7 6 6 7 5 4 4 7 12 13 9 7 6 6 5 5 7 8 7 9 13 15 15 15 16 17 16 15 15 14 14 14 15 13 12 12 13 13 13 13 14 16 15 15 16 17 16 17 17 16 15 15 13 11 10 10 11 11 10 10 9 8 8 7 6 6 5 5 4 3 2 2 2 2 2 2 2 2 1 0 1 1 2
6 5 7 8 9 11 11 10 9 10 12 14 15 14 11 9 8 8 10 10 10 11 12 15 17 19 18 16 16 17 15 12 12 11 11 11 9 8 8 9 8 9 10 11 12 12 13 14 14 15 15 15 14 13 13 12 11 11 11 11 10 10 9 8 7 6 6 6 6 5 4 4 3 2 2 2 3 3 2 2 2 2 2 2 2 2
7 6 6 6 6 6 7 9 10 12 14 15 16 16 16 13 11 11 12 13 13 14 16 18 20 21 20 17 15 14 12 10 11 10 9 10 10 8 8 8 7 8 9 9 10 11 12 12 13 13 13 13 12 11 10 10 10 10 10 9 9 9 8 7 6 6 6 5 5 4 4 3 3 3 3 3 3 3 2 2 2 2 2 2 2 2
5 4 6 8 8 6 8 10 12 15 15 15 15 16 16 15 14 13 14 15 16 17 19 20 21 19 17 15 14 13 11 9 9 9 9 9 9 8 8 9 9 9 8 8 8 8 8 8 10 11 12 12 11 10 9 9 8 8 8 8 8 7 7 6 6 6 6 5 4 4 4 4 4 4 4 3 3 3 2 2 1 2 2 2 2 2
3 3 5 9 10 9 9 11 11 13 14 14 15 16 15 15 15 15 16 18 20 20 20 20 19 18 16 14 14 14 13 11 10 10 9 9 9 8 7 7 7 7 7 6 5 5 6 7 8 10 10 11 10 10 10 9 8 7 7 7 7 6 5 5 5 6 6 5 4 4 5 5 5 5 5 4 4 3 2 2 2 2 3 3 2 2
5 4 4 6 7 6 7 6 5 7 9 11 13 14 14 14 16 16 15 16 18 20 21 20 20 18 17 16 15 14 13 13 12 11 10 9 8 7 6 5 5 5 5 3 3 4 4 5 7 7 9 10 9 9 9 9 9 8 7 6 6 5 4 4 4 4 5 5 5 5 5 5 5 5 4 4 5 5 4 5 5 5 5 4 4 3
8 6 5 6 7 7 8 7 6 8 11 12 12 12 12 12 13 14 13 14 15 16 18 19 19 18 16 15 14 12 11 11 11 10 9 8 7 6 5 4 3 3 4 4 3 4 3 4 5 5 7 8 8 7 8 8 8 8 7 6 4 3 3 4 4 4 4 4 4 6 6 5 4 5 4 5 6 6 5 5 7 7 7 6 5 4
Wind_Direction
194 203 204 216 220 216 213 220 243 288 330 280 257 252 254 252 249 172 180 247 285 283 266 255 260 260 257 255 237 196 192 219 226 224 227 226 221 218 217 215 213 210 207 208 210 211 209 209 209 205 203 203 202 202 201 201 202 205 207 204 203 203 201 199 199 200 201 202 200 195 198 199 194 195 194 189 190 191 193 197 202 203 203 204 204 203
197 220 219 221 228 228 216 217 239 262 250 252 257 256 250 254 253 146 185 257 229 257 265 258 261 259 255 256 248 211 195 222 231 228 230 230 229 226 221 216 212 208 204 207 209 210 211 211 211 208 205 207 207 203 202 203 204 205 206 209 208 204 203 203 201 202 203 204 199 195 200 199 193 194 193 189 189 192 195 199 202 205 205 206 205 204
205 227 227 220 213 205 207 211 221 230 240 243 245 254 252 257 266 190 176 186 174 235 278 280 273 266 260 257 252 232 217 229 234 234 234 232 232 230 226 219 212 204 198 205 208 210 214 213 214 215 210 211 212 207 205 206 206 206 206 210 208 203 204 204 202 203 204 203 197 193 199 198 194 195 187 183 191 193 195 200 204 207 207 206 205 206
208 223 223 205 177 193 204 201 213 222 232 236 238 249 247 246 264 228 162 157 211 263 281 288 283 273 265 255 252 241 231 234 234 234 236 235 235 233 231 225 215 205 198 202 205 208 213 213 214 218 214 211 212 211 210 208 208 209 208 208 206 204 206 206 203 203 203 201 196 195 200 196 193 194 183 178 190 194 195 200 204 207 207 207 207 208
227 124 170 193 185 204 208 197 211 227 234 233 235 248 258 259 263 268 255 263 278 254 245 267 272 258 248 241 241 226 218 228 227 227 233 235 237 237 235 230 221 212 203 200 202 204 209 209 211 216 214 210 212 215 215 212 211 211 210 209 206 204 206 209 208 204 201 198 197 197 196 190 187 186 179 176 185 189 194 199 202 204 206 206 204 204
236 122 143 203 198 208 214 209 215 225 246 242 225 235 257 269 267 270 273 277 280 246 203 229 261 253 230 229 231 198 193 213 209 215 230 233 236 236 234 229 223 217 208 202 202 205 210 209 210 214 213 212 215 217 220 219 215 215 215 211 210 211 211 212 211 206 200 197 197 195 191 190 188 183 178 181 184 188 191 194 197 200 201 199 197 196
231 152 177 213 203 211 220 224 221 218 246 254 213 220 247 261 260 261 257 236 263 270 158 200 262 272 235 223 216 196 202 212 197 197 229 237 239 237 234 231 224 215 208 203 203 208 213 212 212 215 215 220 224 223 224 224 220 219 218 212 212 214 211 210 212 208 203 198 195 193 192 191 188 183 183 186 186 189 190 187 192 196 194 193 193 191
206 190 197 205 203 215 220 225 214 209 240 254 94 224 247 252 251 244 239 232 259 302 180 208 243 268 262 237 203 199 227 222 193 172 206 257 262 249 240 235 226 216 207 205 205 209 213 214 215 218 222 227 230 229 228 229 226 223 219 214 212 209 206 210 212 208 205 201 195 192 191 188 187 186 185 186 186 185 185 184 189 191 189 189 190 190
181 200 199 201 212 221 222 228 201 196 238 256 84 274 265 268 260 240 232 231 247 279 237 216 217 243 260 240 194 200 232 225 182 133 5 322 301 269 244 233 221 211 204 203 203 205 209 211 212 216 223 228 229 229 230 233 233 229 222 215 209 203 207 216 212 206 205 202 195 192 189 184 183 182 178 178 181 181 181 185 186 184 185 188 187 188
144 201 208 210 219 223 229 237 218 207 235 264 231 246 258 256 248 231 230 233 216 240 251 224 203 232 259 244 211 205 230 232 145 66 355 352 321 273 227 220 206 195 193 195 197 199 205 211 215 217 221 223 225 226 229 231 232 232 226 218 212 203 205 214 206 201 202 199 192 190 190 186 183 183 175 170 176 181 182 182 181 180 184 186 184 185
113 137 210 221 226 230 239 238 225 224 232 252 231 227 224 215 211 212 224 238 222 229 248 232 209 234 260 253 232 166 226 312 7 347 355 359 335 241 190 196 191 185 183 183 187 193 199 208 215 215 210 211 216 218 222 229 238 241 234 223 211 197 196 209 201 195 197 194 188 188 190 188 188 191 183 175 177 180 178 178 176 178 181 181 183 186
173 176 190 210 216 227 248 214 194 220 224 229 238 230 220 203 194 211 204 208 236 237 235 214 208 232 252 257 74 74 65 6 352 345 353 352 354 98 165 176 175 172 170 171 175 182 189 192 197 203 206 207 210 213 223 235 243 242 240 241 213 187 187 204 200 196 193 186 186 193 192 188 192 195 189 183 180 177 177 178 174 174 177 175 180 184
205 211 211 206 205 212 232 209 172 190 207 217 230 229 229 213 196 216 209 203 233 229 134 147 200 232 249 258 76 68 38 17 357 353 347 340 354 77 145 155 156 154 155 164 169 172 185 190 184 193 209 212 209 210 218 229 230 229 240 254 232 189 183 202 202 198 187 179 184 190 188 185 189 192 189 184 182 179 180 179 172 172 174 174 179 180
206 211 211 212 207 205 222 224 183 184 198 209 218 219 226 224 211 220 217 216 230 206 131 165 223 247 248 229 62 40 30 23 3 3 353 341 3 71 128 141 148 151 157 167 175 184 194 194 182 184 203 212 214 213 206 187 155 141 200 240 231 195 198 203 202 196 185 184 185 183 182 182 185 187 185 183 183 180 179 177 173 171 171 173 177 176
220 213 199 207 208 192 205 224 225 213 202 206 219 227 234 239 235 236 236 240 241 208 149 168 210 256 253 141 57 32 48 31 11 26 24 8 45 92 122 138 146 148 155 164 174 184 179 173 167 169 191 204 209 205 184 165 153 145 180 251 327 239 207 196 197 194 190 190 186 183 183 182 184 185 181 183 185 182 178 175 172 169 168 168 169 170
231 236 182 187 192 184 199 212 222 236 226 200 213 231 239 244 242 250 284 317 292 254 198 186 225 273 254 133 138 145 96 54 28 43 54 72 99 115 122 140 155 147 145 152 153 151 145 144 150 159 177 185 179 177 171 169 180 206 237 246 219 196 178 182 190 190 186 184 183 185 184 181 183 183 182 187 188 182 178 174 171 167 164 163 163 167
227 227 153 164 187 203 214 209 205 222 228 182 208 225 226 250 256 248 203 99 289 263 236 203 244 250 164 156 159 161 152 103 48 53 88 101 107 118 128 155 171 153 136 141 144 143 143 145 148 155 169 175 167 168 174 180 206 227 226 188 169 162 160 173 182 181 181 182 186 187 182 181 183 182 186 192 187 180 176 172 168 163 160 162 163 167
237 226 158 177 196 190 210 227 209 221 226 197 211 221 200 230 255 249 240 213 224 249 238 211 247 247 214 211 165 171 181 149 98 93 108 122 120 121 144 142 126 114 112 123 130 134 144 150 148 146 152 155 145 145 152 151 149 155 158 161 162 159 160 170 174 175 181 186 187 184 179 180 181 178 184 189 184 178 174 169 164 160 158 160 160 162
238 237 178 184 191 163 174 212 214 212 222 232 261 268 227 227 229 218 231 242 239 250 249 225 239 248 247 232 174 181 186 145 144 126 117 130 124 126 142 114 100 100 107 116 121 125 135 143 144 144 144 141 135 134 135 135 134 133 140 155 171 172 167 169 172 174 178 182 181 180 179 177 174 172 176 181 178 173 172 169 162 158 157 155 153 158
225 242 201 175 172 160 173 203 212 193 202 228 255 255 240 245 250 228 221 236 243 250 251 237 228 228 307 47 135 154 145 129 139 121 101 91 91 108 122 111 104 101 101 109 119 125 135 142 143 146 143 135 134 139 139 138 142 146 145 149 168 178 171 170 173 174 174 176 176 176 176 173 170 170 172 174 174 172 171 168 161 157 156 151 150 154
211 230 221 169 159 183 196 203 222 209 196 209 220 224 222 222 249 254 235 233 249 256 246 246 243 157 62 32 82 103 100 119 133 102 88 77 78 91 93 97 110 109 96 102 114 115 127 141 146 145 137 126 119 131 145 149 152 154 150 154 169 175 170 170 172 173 173 174 174 175 175 174 172 172 173 174 173 173 171 166 161 158 155 152 153 155
205 217 229 207 187 210 203 132 42 290 241 228 224 223 223 220 226 237 231 220 238 261 259 263 266 118 74 10 64 98 83 104 130 110 102 103 95 85 72 67 80 84 70 77 89 88 104 109 141 143 131 119 115 128 141 150 154 153 151 159 169 171 170 169 170 174 176 171 170 174 177 179 177 174 176 177 173 174 171 164 160 159 156 154 155 155
224 232 233 230 227 220 129 103 85 26 284 244 243 242 239 234 228 230 235 223 217 234 248 262 262 129 74 343 82 107 33 45 119 137 137 114 87 74 67 56 53 55 58 69 64 53 85 55 106 143 136 121 121 130 136 149 160 157 153 157 163 167 169 167 168 176 175 168 170 176 178 181 180 175 176 177 174 173 170 165 160 159 160 159 156 157
138 236 236 236 234 213 134 126 133 145 212 217 212 237 261 253 245 240 251 263 239 224 226 242 247 162 92 268 180 137 83 64 67 55 75 88 77 66 60 50 43 46 59 76 68 58 128 100 96 143 149 132 126 132 140 154 162 153 152 157 160 163 166 166 169 174 174 172 176 177 175 176 175 173 174 175 174 173 169 166 162 162 164 161 157 161
184 234 232 228 224 207 187 184 183 188 213 219 143 106 298 281 257 239 240 254 252 234 227 243 248 119 120 179 167 140 98 68 52 46 57 70 68 59 49 40 34 39 54 71 66 20 304 228 154 182 170 133 133 139 143 153 162 152 152 156 158 161 164 167 169 171 176 182 180 175 173 171 169 170 172 173 174 173 169 165 164 166 165 161 161 164
180 253 233 234 230 215 208 208 209 201 192 172 105 85 16 321 259 245 240 238 242 228 225 244 251 120 134 157 143 121 93 74 60 53 59 65 61 56 48 38 33 36 36 29 13 316 331 339 193 181 159 147 148 144 144 155 167 157 156 160 160 161 163 166 169 173 182 186 175 171 173 170 168 170 170 173 173 170 169 168 169 168 162 159 162 156
191 191 230 272 272 268 301 324 330 307 180 153 99 73 36 3 299 265 246 238 258 246 229 230 168 141 155 166 147 112 87 81 69 57 57 61 59 57 56 53 52 56 56 49 55 57 23 25 165 161 157 154 153 151 152 164 171 157 156 157 154 156 162 168 172 176 184 186 176 176 177 171 170 170 169 172 172 168 169 171 172 172 166 161 159 150
246 194 187 237 292 346 349 354 7 10 91 98 66 51 29 15 342 264 245 292 315 270 243 220 137 144 142 132 124 104 87 81 71 60 54 60 62 64 69 70 67 68 69 71 81 91 92 113 141 156 162 155 152 159 160 157 152 141 141 147 148 151 157 162 164 163 171 178 175 176 177 173 171 170 168 170 168 168 171 173 174 174 166 159 156 152
267 222 176 174 169 33 1 1 44 70 80 72 59 44 27 22 19 349 357 3 342 288 238 278 118 114 88 62 62 75 82 79 75 71 65 66 70 73 76 71 65 64 63 70 88 103 107 115 132 154 166 161 161 170 170 159 152 141 133 135 139 141 145 153 156 153 156 162 163 171 179 179 175 171 168 168 168 169 172 174 173 168 158 152 150 147
336 223 165 157 147 118 96 43 66 108 93 73 57 41 29 29 34 34 28 6 355 39 97 113 96 77 56 49 52 61 77 84 82 78 69 65 68 70 70 64 59 57 57 60 74 92 104 113 124 144 168 173 169 173 172 164 162 155 147 141 135 135 141 145 143 144 149 152 156 168 178 181 179 176 172 172 173 173 173 173 169 160 152 146 143 141
338 216 163 165 157 135 134 126 114 115 97 84 65 43 32 38 42 31 19 357 336 38 97 118 104 76 50 70 73 67 80 86 78 70 64 60 61 66 68 63 58 56 56 56 61 75 94 112 122 133 155 162 157 163 163 157 158 159 153 148 145 144 147 148 147 143 138 137 139 146 157 166 171 176 175 172 172 173 174 171 160 151 149 152 155 156
322 8 200 218 189 147 156 153 131 118 109 89 58 32 21 26 29 17 17 5 339 344 120 154 129 97 93 91 83 72 71 73 67 63 63 61 62 66 67 64 60 57 55 54 59 68 81 97 109 121 134 138 137 145 148 145 147 147 143 145 149 151 153 159 163 149 131 128 132 134 145 154 160 171 175 173 175 177 177 174 167 168 207 228 211 207
298 121 206 242 207 150 155 152 137 148 171 111 42 11 358 9 13 5 34 24 351 334 303 220 89 99 124 114 91 73 63 63 62 59 63 67 68 70 69 68 64 61 59 58 61 67 75 86 96 107 120 128 130 132 135 139 139 132 130 135 137 140 147 151 154 145 132 133 136 134 146 154 159 171 174 176 182 181 178 182 190 209 235 232 223 221
211 200 198 248 229 154 144 150 166 183 207 160 61 6 350 3 9 6 31 24 356 340 1 55 94 115 123 107 93 85 74 69 66 61 63 70 74 75 74 72 69 66 66 65 65 70 82 95 100 101 110 119 122 122 125 130 125 116 116 120 118 122 135 139 141 143 139 137 138 141 153 161 171 179 175 177 186 187 187 195 198 198 202 205 207 205
208 208 201 210 246 133 143 174 198 180 78 161 127 14 5 15 9 2 29 32 11 356 40 81 106 110 105 103 104 100 91 82 74 65 61 65 72 79 80 76 73 72 72 73 76 82 93 104 104 100 104 111 112 112 114 115 114 111 110 111 112 120 130 131 131 131 128 127 130 134 142 155 171 179 175 177 183 184 187 189 182 179 187 190 189 188
235 214 197 190 75 139 164 195 187 118 81 117 124 20 12 18 7 352 54 51 16 348 43 105 112 109 112 114 112 109 101 88 74 61 55 60 71 78 81 79 81 83 83 84 86 87 90 94 94 95 100 105 106 108 111 111 110 114 116 116 118 121 124 127 125 121 117 117 118 119 125 141 154 158 159 161 163 163 165 169 171 172 174 175 177 178
255 235 208 184 197 184 139 92 112 144 105 68 53 16 6 348 345 333 257 53 14 351 44 123 126 120 120 120 120 122 112 88 69 52 46 59 73 79 83 86 90 92 92 92 91 88 87 87 86 88 91 95 97 102 109 115 118 123 124 123 123 123 125 128 126 120 117 116 115 117 122 134 142 144 147 151 154 156 159 163 169 173 175 179 178 175
266 240 240 211 209 234 156 117 122 164 111 41 4 355 353 326 296 277 248 67 27 11 45 128 132 127 129 131 134 141 130 84 69 51 45 61 74 80 86 90 93 94 94 92 90 88 86 86 85 86 86 87 88 90 98 110 118 122 121 118 118 120 121 120 117 113 112 112 112 112 114 120 126 129 132 142 153 160 165 171 176 180 187 193 188 184
317 229 234 201 166 194 162 127 82 72 73 16 349 344 342 328 255 216 226 81 29 8 35 139 138 136 139 140 145 174 231 98 107 91 66 70 79 85 91 94 96 96 95 93 89 87 84 83 85 85 83 83 85 87 91 99 107 113 114 113 114 114 112 110 110 110 110 111 111 111 113 116 119 121 123 133 146 155 161 168 172 170 177 190 193 194
8 329 211 142 118 89 91 95 70 69 48 355 342 338 338 327 200 202 202 60 6 349 25 148 147 142 142 147 162 295 320 111 140 133 111 95 95 97 99 99 98 96 94 92 90 89 86 85 86 82 75 70 72 80 86 92 99 102 104 107 110 109 108 108 110 113 115 116 116 116 117 117 119 123 127 129 134 138 141 146 145 142 149 160 175 187
19 5 41 102 102 89 96 100 86 85 30 350 339 338 339 301 201 227 11 350 330 332 74 135 147 148 151 199 305 38 71 113 130 129 118 107 104 101 101 102 98 93 89 87 86 86 84 84 83 79 72 65 62 65 70 81 93 95 96 101 104 103 104 108 112 116 120 123 126 126 126 127 127 129 129 129 131 133 134 139 144 147 155 166 185 207
19 11 42 70 80 84 104 107 104 105 31 353 339 336 347 332 200 10 358 334 326 353 106 118 132 145 111 44 97 108 112 119 124 123 116 112 111 106 104 104 99 92 88 83 80 78 77 77 77 74 70 65 62 60 57 61 75 83 89 95 95 93 95 99 104 110 114 118 122 125 127 131 133 134 136 137 140 144 145 158 176 197 216 227 237 248
351 360 73 64 45 72 97 82 81 97 10 353 345 349 12 11 358 331 338 2 45 73 91 87 86 91 93 104 112 115 116 117 117 115 112 112 113 108 104 100 93 87 83 78 73 69 67 67 66 66 66 63 60 58 53 50 55 64 74 83 84 84 86 87 88 93 97 101 105 107 111 115 118 126 133 136 143 150 156 169 187 201 216 225 234 243
1 6 87 55 348 26 83 65 57 35 347 357 8 27 16 360 347 329 340 56 66 66 78 83 82 90 106 113 112 111 112 113 113 114 114 114 112 107 101 95 88 83 78 74 70 65 59 56 54 57 62 63 61 60 56 51 49 50 58 68 70 70 72 73 73 73 74 78 81 84 89 92 94 101 108 112 121 127 132 149 164 183 210 224 229 236
36 45 77 75 52 60 75 80 79 56 27 30 39 42 29 22 32 53 84 88 73 73 88 91 92 97 103 105 105 103 106 109 110 112 111 111 111 109 104 99 93 87 83 78 73 67 61 57 53 52 55 59 61 63 62 62 64 65 68 73 72 68 66 63 60 59 58 57 60 62 66 68 68 69 74 85 94 92 95 100 98 97 118 266 253 253
71 68 82 92 96 89 81 80 81 70 60 57 55 52 52 56 60 72 84 83 82 91 96 95 99 103 103 102 102 103 104 106 109 110 110 111 116 117 114 111 107 103 100 92 84 77 71 65 58 54 55 58 61 64 65 67 72 76 81 84 83 81 78 73 68 64 60 59 59 58 57 59 58 55 51 53 60 59 55 57 52 28 14 14 350 336
82 81 88 102 118 110 83 75 75 74 71 69 66 64 63 64 69 78 84 86 90 96 98 101 105 105 103 101 102 103 106 106 107 108 110 114 119 121 120 119 119 119 116 107 97 89 78 66 59 56 55 58 63 65 65 65 65 67 73 80 84 86 86 84 81 76 70 69 71 69 66 64 65 67 62 60 65 64 48 41 39 20 14 18 15 19
68 69 79 83 87 94 95 92 87 81 76 73 72 71 70 72 77 84 90 94 96 97 101 105 107 106 104 102 100 103 107 106 103 102 103 109 116 122 125 125 121 119 119 114 102 92 78 64 58 55 52 56 62 65 68 71 70 67 68 72 80 87 90 90 90 88 86 84 86 96 102 101 103 100 90 82 80 73 51 36 28 17 18 18 14 26
58 87 94 95 95 95 102 106 101 92 83 76 76 77 79 82 88 93 98 101 100 101 103 104 103 102 102 102 103 105 106 105 105 101 96 97 103 110 122 131 131 125 119 112 101 92 80 70 67 61 58 59 60 59 61 66 73 79 81 80 82 87 90 90 86 81 80 77 74 81 90 95 103 109 107 102 97 83 63 54 44 35 40 37 27 27
76 91 105 113 104 93 98 104 101 96 91 86 85 87 89 93 96 99 104 105 104 103 105 106 104 101 99 100 102 104 105 106 104 96 88 84 84 87 99 119 137 149 152 145 127 114 97 81 75 65 59 62 64 60 57 56 57 62 66 71 77 80 82 84 78 69 64 63 62 68 68 66 72 76 75 80 83 73 58 53 53 51 49 45 50 70
48 37 50 90 91 88 96 95 86 94 101 101 99 97 95 97 100 102 107 111 112 109 108 108 109 110 109 107 108 109 110 106 98 87 79 75 70 68 76 93 124 166 183 181 163 151 136 110 94 72 57 58 63 62 58 55 55 54 53 60 73 73 65 72 75 68 57 50 57 72 69 51 49 60 64 73 81 75 57 42 42 45 48 49 54 77
Height
1494 1493 1493 1490 1486 1484 1485 1485 1482 1483 1486 1487 1485 1485 1484 1483 1480 1480 1485 1485 1485 1488 1484 1481 1481 1479 1477 1474 1472 1476 1480 1481 1481 1481 1481 1481 1481 1481 1483 1486 1488 1491 1493 1494 1495 1496 1497 1498 1499 1501 1502 1503 1503 1504 1505 1506 1507 1508 1510 1512 1514 1517 1519 1520 1521 1522 1523 1525 1527 1529 1531 1533 1535 1536 1538 1540 1542 1544 1546 1548 1549 1551 1551 1552 1553 1554
1494 1492 1487 1483 1481 1482 1483 1485 1487 1489 1490 1489 1487 1485 1483 1481 1477 1479 1485 1484 1484 1488 1483 1478 1480 1479 1476 1474 1471 1473 1478 1479 1478 1479 1479 1479 1479 1479 1480 1483 1486 1488 1491 1492 1493 1494 1495 1496 1497 1499 1501 1502 1502 1502 1503 1504 1505 1506 1508 1510 1512 1514 1516 1518 1519 1520 1522 1523 1525 1528 1530 1532 1533 1535 1538 1540 1541 1543 1545 1547 1549 1550 1551 1551 1552 1553
1493 1489 1483 1480 1482 1485 1486 1487 1489 1491 1491 1490 1488 1486 1484 1479 1476 1479 1484 1484 1484 1486 1482 1478 1480 1479 1474 1472 1470 1470 1473 1475 1476 1476 1477 1477 1477 1477 1478 1480 1483 1486 1489 1490 1491 1492 1493 1494 1496 1497 1499 1501 1502 1501 1502 1503 1503 1505 1506 1508 1510 1513 1514 1516 1517 1518 1520 1522 1524 1527 1529 1530 1532 1534 1536 1538 1539 1541 1544 1546 1548 1549 1550 1551 1552 1553
1488 1483 1478 1480 1484 1487 1488 1489 1490 1491 1491 1489 1487 1486 1483 1478 1480 1484 1483 1483 1484 1484 1483 1480 1481 1478 1473 1471 1468 1467 1470 1471 1473 1474 1474 1474 1474 1475 1476 1478 1480 1483 1485 1486 1488 1490 1491 1493 1493 1495 1497 1499 1500 1500 1500 1501 1502 1502 1504 1505 1508 1510 1512 1514 1516 1517 1518 1521 1523 1526 1527 1528 1530 1532 1535 1537 1538 1541 1543 1545 1547 1548 1549 1550 1551 1552
1479 1477 1478 1481 1484 1486 1488 1490 1491 1491 1489 1486 1485 1485 1482 1478 1482 1484 1480 1481 1482 1480 1481 1482 1483 1476 1468 1467 1465 1463 1467 1469 1470 1472 1472 1473 1473 1474 1475 1476 1477 1480 1482 1483 1485 1487 1488 1490 1492 1493 1496 1497 1498 1499 1498 1499 1499 1500 1501 1504 1507 1509 1511 1513 1514 1516 1517 1519 1522 1524 1526 1528 1529 1531 1534 1536 1537 1539 1542 1544 1546 1547 1548 1550 1551 1552
1476 1477 1481 1483 1483 1484 1486 1488 1488 1489 1487 1483 1481 1481 1481 1480 1482 1482 1480 1484 1485 1480 1477 1480 1486 1475 1459 1461 1462 1460 1465 1466 1466 1469 1470 1471 1472 1473 1473 1473 1474 1477 1479 1481 1484 1486 1487 1489 1491 1493 1494 1496 1496 1497 1497 1497 1497 1498 1500 1503 1505 1507 1509 1511 1512 1515 1517 1518 1520 1522 1525 1526 1527 1530 1533 1534 1536 1538 1541 1544 1545 1547 1548 1549 1550 1551
1475 1477 1480 1482 1483 1483 1484 1485 1484 1486 1487 1483 1478 1477 1481 1480 1480 1481 1481 1486 1486 1479 1475 1477 1484 1478 1461 1459 1459 1459 1463 1463 1463 1467 1468 1470 1471 1470 1470 1470 1471 1474 1477 1480 1483 1485 1488 1490 1492 1493 1494 1494 1494 1494 1495 1494 1494 1496 1498 1501 1502 1504 1507 1509 1511 1513 1517 1518 1519 1521 1524 1525 1527 1529 1532 1533 1535 1538 1540 1543 1545 1546 1548 1549 1550 1551
1474 1478 1480 1481 1483 1484 1484 1483 1481 1483 1487 1483 1476 1478 1480 1478 1480 1480 1481 1484 1478 1474 1476 1474 1476 1480 1470 1459 1455 1458 1462 1460 1461 1467 1468 1468 1469 1468 1468 1468 1469 1472 1476 1480 1483 1485 1487 1489 1491 1492 1491 1490 1490 1491 1491 1491 1492 1494 1497 1498 1500 1503 1505 1508 1510 1511 1515 1519 1520 1521 1523 1525 1528 1529 1531 1533 1535 1537 1540 1542 1544 1546 1548 1549 1550 1551
1472 1477 1479 1480 1483 1483 1481 1479 1478 1483 1485 1479 1477 1480 1479 1478 1479 1478 1478 1479 1475 1478 1481 1471 1471 1482 1474 1455 1452 1459 1460 1457 1461 1466 1467 1467 1468 1467 1467 1467 1468 1471 1475 1478 1481 1483 1485 1486 1487 1487 1487 1486 1487 1488 1488 1490 1491 1494 1497 1496 1497 1502 1505 1508 1509 1511 1515 1519 1520 1522 1523 1525 1528 1528 1530 1533 1534 1536 1539 1541 1543 1545 1547 1548 1549 1550
1472 1475 1476 1477 1479 1478 1476 1475 1476 1480 1482 1478 1478 1481 1479 1479 1478 1477 1478 1475 1477 1487 1484 1467 1468 1480 1472 1453 1450 1458 1458 1457 1462 1465 1465 1465 1466 1466 1466 1466 1467 1470 1474 1477 1479 1481 1483 1483 1484 1485 1485 1485 1486 1487 1488 1491 1493 1495 1497 1495 1495 1500 1506 1508 1509 1512 1516 1520 1521 1522 1524 1526 1528 1528 1530 1532 1534 1536 1538 1540 1542 1544 1546 1547 1548 1549
1473 1475 1476 1475 1475 1473 1473 1473 1475 1478 1479 1478 1480 1479 1478 1478 1476 1477 1476 1473 1482 1490 1478 1464 1465 1476 1475 1457 1449 1458 1461 1462 1465 1465 1464 1465 1465 1465 1466 1466 1467 1469 1472 1475 1477 1480 1482 1482 1483 1485 1485 1485 1486 1487 1488 1491 1493 1495 1498 1498 1495 1499 1505 1508 1509 1512 1515 1518 1521 1521 1523 1526 1528 1529 1531 1532 1534 1536 1538 1540 1542 1543 1545 1546 1547 1548
1472 1475 1474 1473 1473 1473 1473 1474 1476 1477 1478 1480 1480 1476 1478 1479 1479 1480 1478 1480 1490 1486 1471 1464 1464 1474 1477 1461 1453 1460 1463 1463 1465 1465 1465 1466 1464 1464 1465 1465 1466 1469 1472 1474 1476 1479 1481 1482 1483 1484 1484 1484 1486 1488 1488 1491 1493 1493 1497 1499 1499 1501 1506 1507 1508 1511 1514 1517 1520 1521 1522 1526 1528 1530 1532 1533 1534 1536 1538 1540 1541 1543 1544 1545 1546 1547
1470 1470 1469 1470 1471 1472 1474 1473 1475 1478 1478 1480 1479 1478 1481 1483 1486 1488 1484 1484 1486 1477 1469 1466 1467 1474 1471 1459 1457 1462 1462 1463 1464 1465 1466 1466 1464 1464 1465 1466 1466 1468 1471 1473 1475 1478 1479 1481 1481 1481 1482 1484 1486 1488 1489 1492 1494 1493 1495 1500 1503 1506 1509 1509 1509 1511 1515 1518 1520 1521 1523 1526 1528 1531 1533 1533 1535 1537 1538 1540 1541 1542 1544 1545 1546 1547
1470 1467 1464 1468 1469 1469 1471 1471 1473 1476 1476 1478 1477 1477 1480 1481 1490 1494 1485 1480 1478 1473 1470 1466 1470 1474 1464 1457 1461 1462 1462 1465 1464 1465 1467 1467 1466 1466 1466 1467 1467 1468 1470 1473 1474 1476 1478 1479 1480 1480 1482 1484 1485 1487 1489 1491 1493 1494 1497 1500 1503 1506 1509 1510 1509 1511 1515 1518 1520 1522 1524 1526 1528 1531 1532 1534 1535 1537 1538 1540 1541 1543 1544 1545 1546 1546
1471 1469 1463 1464 1463 1463 1466 1466 1465 1466 1468 1471 1468 1468 1472 1472 1481 1487 1479 1475 1474 1472 1472 1472 1474 1471 1463 1463 1464 1461 1463 1465 1465 1467 1468 1468 1468 1467 1468 1468 1468 1469 1470 1472 1474 1475 1477 1477 1478 1480 1481 1483 1486 1488 1489 1490 1491 1493 1496 1499 1501 1504 1506 1506 1507 1510 1513 1516 1519 1521 1523 1525 1527 1530 1532 1533 1535 1537 1538 1540 1541 1543 1544 1545 1546 1546
1467 1465 1456 1457 1459 1458 1462 1462 1461 1464 1466 1465 1462 1465 1469 1463 1465 1475 1477 1475 1474 1474 1474 1474 1469 1458 1457 1464 1461 1460 1463 1464 1467 1468 1467 1470 1469 1468 1469 1469 1469 1470 1470 1472 1474 1475 1476 1477 1478 1478 1479 1482 1485 1488 1489 1490 1491 1491 1493 1497 1499 1502 1504 1504 1505 1508 1511 1515 1518 1520 1521 1524 1526 1528 1531 1532 1534 1536 1538 1540 1541 1542 1544 1545 1546 1546
1467 1462 1452 1456 1461 1457 1459 1458 1459 1464 1466 1465 1466 1466 1462 1455 1457 1470 1479 1477 1479 1481 1473 1467 1464 1454 1455 1462 1459 1459 1463 1463 1467 1468 1467 1470 1470 1470 1471 1470 1471 1472 1472 1473 1474 1475 1477 1478 1479 1479 1479 1481 1483 1486 1489 1490 1490 1489 1491 1495 1498 1501 1502 1504 1505 1507 1511 1515 1517 1519 1520 1522 1525 1527 1530 1532 1534 1536 1538 1540 1541 1542 1543 1545 1545 1546
1462 1462 1453 1454 1459 1457 1459 1460 1458 1459 1461 1464 1467 1461 1455 1457 1460 1465 1476 1478 1479 1482 1472 1463 1466 1459 1457 1465 1464 1461 1463 1464 1466 1467 1468 1470 1471 1471 1471 1471 1472 1473 1474 1475 1475 1477 1478 1479 1480 1480 1480 1481 1482 1484 1487 1489 1489 1488 1490 1494 1496 1498 1499 1502 1504 1506 1510 1513 1516 1518 1520 1522 1524 1526 1529 1531 1534 1536 1538 1539 1540 1542 1543 1544 1545 1545
1460 1463 1457 1451 1455 1457 1458 1462 1462 1459 1459 1460 1461 1456 1456 1467 1468 1465 1474 1478 1477 1481 1474 1464 1464 1458 1454 1462 1466 1463 1463 1465 1466 1466 1467 1469 1470 1472 1472 1472 1475 1475 1476 1477 1477 1478 1479 1480 1481 1480 1481 1482 1482 1483 1484 1487 1489 1488 1490 1492 1495 1497 1499 1501 1503 1505 1508 1512 1515 1517 1520 1522 1524 1526 1528 1531 1533 1536 1538 1539 1540 1541 1543 1544 1545 1545
1458 1465 1463 1452 1452 1456 1456 1459 1461 1458 1459 1460 1460 1457 1455 1463 1465 1461 1463 1466 1470 1477 1474 1468 1465 1459 1456 1458 1461 1463 1463 1465 1468 1468 1468 1470 1472 1473 1473 1474 1476 1477 1478 1478 1478 1479 1479 1480 1482 1481 1480 1481 1483 1483 1483 1486 1489 1489 1489 1491 1494 1496 1498 1501 1503 1505 1507 1510 1514 1517 1519 1522 1524 1526 1528 1531 1533 1536 1538 1539 1540 1541 1542 1543 1544 1545
1458 1465 1466 1455 1452 1457 1457 1455 1453 1453 1455 1458 1461 1461 1459 1458 1457 1457 1456 1453 1459 1467 1469 1471 1468 1462 1462 1462 1460 1463 1466 1467 1470 1470 1471 1474 1474 1473 1474 1475 1477 1478 1478 1478 1478 1479 1479 1480 1482 1481 1480 1480 1482 1483 1484 1487 1488 1489 1489 1491 1493 1495 1497 1500 1502 1505 1507 1509 1513 1516 1519 1521 1523 1526 1529 1531 1534 1536 1537 1538 1539 1540 1541 1542 1544 1544
1459 1463 1465 1457 1454 1456 1453 1450 1450 1451 1451 1453 1455 1455 1455 1455 1456 1466 1467 1454 1452 1458 1460 1466 1467 1464 1468 1467 1463 1466 1469 1469 1471 1472 1474 1475 1475 1476 1476 1477 1478 1478 1478 1479 1479 1479 1479 1480 1481 1481 1480 1480 1482 1483 1484 1487 1488 1488 1490 1491 1493 1495 1497 1499 1502 1504 1506 1508 1512 1515 1518 1521 1523 1526 1529 1531 1533 1535 1537 1538 1539 1540 1541 1542 1543 1544
1458 1460 1462 1459 1454 1452 1451 1451 1454 1455 1453 1453 1454 1450 1450 1451 1453 1466 1471 1459 1453 1455 1454 1459 1464 1466 1473 1472 1468 1471 1473 1472 1473 1474 1474 1476 1477 1478 1478 1479 1479 1478 1478 1479 1479 1479 1480 1480 1481 1481 1481 1482 1483 1483 1484 1487 1488 1489 1490 1492 1494 1495 1497 1500 1502 1504 1506 1508 1512 1514 1517 1521 1523 1525 1528 1531 1533 1535 1536 1537 1538 1539 1540 1541 1542 1543
1461 1461 1462 1460 1453 1448 1451 1453 1453 1456 1455 1454 1455 1454 1455 1453 1450 1457 1463 1458 1456 1456 1457 1462 1464 1468 1475 1475 1472 1474 1475 1476 1476 1476 1477 1478 1479 1480 1480 1481 1480 1479 1479 1479 1479 1480 1480 1481 1481 1481 1482 1483 1483 1483 1484 1488 1489 1490 1491 1493 1495 1496 1497 1500 1502 1504 1506 1508 1510 1513 1516 1520 1522 1525 1528 1530 1532 1534 1535 1536 1537 1539 1540 1541 1542 1542
1464 1463 1461 1464 1461 1457 1458 1459 1458 1458 1456 1454 1456 1459 1460 1456 1454 1457 1457 1456 1458 1456 1455 1461 1465 1470 1476 1475 1473 1474 1477 1479 1480 1480 1481 1481 1482 1483 1482 1483 1482 1481 1481 1480 1481 1481 1481 1481 1481 1481 1483 1484 1484 1484 1484 1488 1491 1491 1493 1495 1495 1497 1498 1500 1502 1504 1506 1507 1510 1514 1516 1519 1521 1524 1527 1529 1531 1533 1534 1536 1537 1538 1539 1540 1541 1541
1465 1465 1464 1466 1466 1465 1466 1467 1465 1459 1455 1456 1459 1462 1463 1460 1459 1460 1456 1458 1461 1455 1451 1455 1462 1472 1477 1474 1474 1477 1479 1482 1483 1484 1484 1484 1484 1485 1485 1485 1484 1482 1482 1481 1482 1483 1483 1483 1482 1483 1484 1485 1486 1486 1485 1489 1492 1492 1493 1494 1495 1497 1498 1500 1503 1504 1506 1508 1512 1516 1518 1519 1521 1523 1526 1528 1530 1532 1534 1535 1536 1537 1539 1540 1541 1541
1464 1468 1469 1469 1469 1468 1469 1471 1467 1458 1455 1460 1463 1463 1465 1465 1464 1461 1458 1460 1461 1456 1453 1451 1454 1468 1476 1473 1475 1480 1482 1485 1486 1486 1487 1486 1487 1488 1488 1488 1487 1485 1485 1485 1485 1485 1485 1485 1485 1485 1486 1486 1488 1488 1487 1490 1493 1493 1494 1494 1495 1497 1498 1501 1503 1504 1507 1510 1514 1517 1519 1520 1521 1523 1525 1527 1529 1531 1533 1534 1536 1537 1538 1539 1540 1541
1465 1467 1469 1472 1474 1473 1471 1470 1466 1460 1460 1464 1467 1467 1467 1466 1465 1463 1462 1464 1463 1462 1462 1455 1452 1462 1472 1473 1477 1482 1485 1487 1488 1489 1490 1489 1489 1490 1491 1491 1490 1489 1488 1488 1488 1488 1487 1487 1486 1487 1488 1488 1488 1489 1489 1491 1493 1494 1495 1494 1495 1497 1498 1500 1503 1505 1508 1511 1514 1517 1518 1519 1520 1522 1525 1527 1529 1531 1532 1534 1535 1536 1538 1539 1540 1541
1469 1468 1466 1470 1476 1476 1474 1470 1465 1465 1466 1469 1471 1472 1470 1468 1468 1467 1467 1468 1466 1466 1468 1466 1462 1466 1477 1483 1485 1486 1488 1490 1491 1492 1492 1492 1492 1492 1493 1492 1492 1491 1491 1490 1490 1489 1488 1488 1487 1488 1489 1489 1489 1489 1490 1491 1492 1493 1494 1495 1496 1498 1500 1502 1503 1506 1509 1511 1513 1515 1515 1517 1520 1522 1524 1526 1528 1530 1531 1533 1534 1536 1537 1539 1540 1541
1472 1469 1464 1467 1475 1478 1477 1474 1469 1467 1470 1474 1476 1477 1475 1473 1473 1473 1473 1473 1469 1466 1468 1471 1475 1482 1489 1492 1492 1491 1492 1493 1493 1494 1494 1494 1494 1494 1494 1494 1493 1493 1493 1492 1492 1490 1489 1489 1489 1489 1489 1490 1490 1490 1491 1492 1493 1493 1493 1494 1496 1498 1500 1502 1503 1505 1508 1510 1511 1513 1514 1517 1520 1521 1523 1525 1527 1528 1530 1532 1534 1535 1537 1538 1540 1541
1473 1470 1465 1465 1470 1475 1477 1475 1473 1470 1472 1477 1481 1483 1481 1480 1479 1480 1482 1481 1475 1470 1471 1475 1482 1491 1494 1493 1494 1495 1496 1495 1495 1495 1495 1496 1496 1496 1496 1495 1495 1495 1494 1494 1494 1493 1491 1490 1490 1490 1490 1490 1491 1491 1491 1492 1493 1493 1494 1494 1496 1497 1499 1501 1502 1504 1506 1508 1510 1512 1514 1516 1519 1521 1523 1525 1526 1528 1530 1532 1533 1535 1536 1538 1539 1540
1475 1474 1474 1466 1466 1473 1476 1474 1476 1475 1474 1478 1486 1492 1491 1488 1488 1488 1489 1490 1485 1479 1478 1476 1479 1489 1495 1495 1496 1498 1498 1498 1497 1497 1498 1498 1498 1498 1497 1497 1496 1496 1496 1495 1495 1494 1493 1492 1491 1491 1491 1491 1491 1491 1492 1492 1492 1493 1494 1495 1497 1499 1500 1502 1503 1504 1505 1508 1510 1512 1514 1517 1519 1521 1523 1525 1527 1528 1529 1531 1532 1533 1535 1536 1538 1539
1475 1476 1476 1469 1468 1475 1474 1472 1476 1479 1478 1483 1494 1502 1501 1496 1495 1492 1490 1493 1494 1490 1484 1479 1483 1492 1496 1496 1497 1500 1501 1501 1500 1500 1501 1500 1500 1500 1499 1499 1498 1498 1497 1497 1496 1495 1494 1493 1493 1492 1491 1491 1491 1491 1492 1494 1494 1494 1494 1496 1498 1499 1502 1503 1505 1506 1507 1509 1511 1513 1515 1518 1520 1521 1523 1525 1526 1527 1529 1530 1531 1532 1533 1534 1536 1538
1475 1474 1474 1473 1474 1476 1476 1475 1476 1476 1482 1494 1504 1505 1502 1501 1500 1497 1496 1497 1498 1495 1491 1489 1492 1496 1496 1497 1500 1503 1504 1504 1503 1504 1503 1502 1503 1502 1501 1501 1500 1500 1499 1499 1498 1497 1496 1495 1494 1494 1493 1493 1493 1492 1493 1494 1496 1496 1496 1498 1499 1501 1503 1504 1505 1507 1508 1509 1512 1514 1516 1518 1520 1521 1523 1525 1526 1527 1529 1530 1530 1531 1532 1534 1536 1537
1473 1471 1472 1472 1470 1472 1477 1478 1476 1481 1491 1502 1505 1503 1502 1503 1502 1501 1501 1501 1500 1499 1498 1497 1497 1498 1498 1501 1503 1504 1505 1506 1506 1505 1505 1505 1505 1505 1504 1503 1503 1502 1502 1501 1500 1500 1498 1497 1496 1495 1495 1495 1495 1495 1495 1496 1497 1498 1499 1500 1501 1502 1505 1506 1507 1508 1509 1511 1513 1515 1517 1519 1520 1521 1523 1524 1526 1527 1529 1530 1530 1531 1532 1534 1535 1537
1472 1469 1468 1469 1468 1470 1472 1471 1478 1492 1500 1501 1503 1504 1503 1504 1504 1502 1501 1503 1504 1502 1500 1501 1501 1501 1502 1504 1505 1506 1507 1507 1506 1506 1508 1508 1507 1507 1506 1505 1505 1505 1505 1504 1504 1503 1501 1500 1500 1498 1497 1497 1498 1498 1497 1498 1499 1500 1501 1502 1504 1506 1508 1509 1510 1510 1511 1513 1515 1516 1518 1519 1521 1522 1523 1525 1526 1527 1529 1530 1531 1532 1533 1535 1536 1537
1472 1469 1465 1467 1470 1469 1469 1476 1489 1497 1499 1501 1505 1507 1507 1508 1508 1507 1504 1505 1506 1504 1502 1503 1503 1503 1505 1506 1507 1508 1507 1506 1507 1509 1511 1511 1511 1509 1508 1507 1508 1508 1507 1507 1507 1506 1505 1505 1504 1503 1502 1502 1501 1501 1500 1500 1502 1503 1504 1505 1507 1509 1511 1511 1512 1513 1513 1515 1517 1518 1519 1520 1522 1523 1524 1525 1526 1528 1529 1530 1532 1533 1534 1535 1536 1537
1471 1469 1465 1467 1471 1467 1467 1480 1490 1490 1495 1505 1509 1508 1509 1509 1509 1510 1507 1506 1507 1507 1505 1505 1505 1505 1507 1508 1508 1509 1508 1507 1510 1514 1516 1515 1513 1512 1511 1511 1511 1511 1511 1511 1510 1510 1509 1508 1507 1507 1507 1507 1507 1506 1506 1506 1505 1506 1507 1508 1510 1511 1512 1513 1514 1515 1516 1517 1518 1520 1520 1522 1523 1524 1525 1526 1527 1529 1530 1531 1532 1534 1535 1536 1536 1537
1470 1468 1463 1464 1469 1467 1466 1476 1487 1492 1502 1510 1509 1508 1508 1507 1509 1510 1504 1503 1508 1509 1507 1507 1507 1507 1508 1509 1510 1510 1509 1508 1513 1518 1518 1516 1515 1515 1514 1514 1513 1513 1514 1513 1513 1512 1512 1511 1510 1510 1511 1512 1511 1512 1512 1512 1510 1510 1509 1510 1512 1513 1513 1514 1515 1517 1518 1519 1520 1521 1522 1523 1524 1525 1526 1527 1528 1529 1531 1531 1532 1534 1535 1536 1536 1537
1474 1470 1463 1464 1471 1473 1474 1483 1496 1504 1510 1510 1508 1507 1506 1507 1509 1504 1496 1500 1510 1510 1508 1508 1509 1509 1510 1511 1510 1511 1510 1510 1513 1517 1518 1517 1517 1517 1517 1517 1516 1516 1516 1516 1516 1515 1515 1514 1513 1513 1513 1515 1515 1515 1516 1516 1515 1514 1514 1514 1514 1514 1515 1516 1517 1519 1520 1521 1522 1523 1523 1524 1525 1526 1527 1528 1529 1530 1531 1532 1533 1534 1535 1536 1536 1537
1483 1478 1469 1468 1474 1478 1482 1491 1502 1509 1512 1511 1509 1506 1505 1506 1504 1498 1498 1507 1513 1510 1509 1510 1510 1511 1512 1512 1511 1512 1512 1512 1514 1517 1518 1518 1519 1519 1519 1519 1519 1519 1519 1519 1519 1518 1518 1517 1516 1516 1517 1518 1518 1518 1517 1518 1518 1517 1517 1517 1517 1517 1518 1520 1521 1521 1522 1523 1524 1524 1525 1526 1527 1527 1528 1529 1530 1531 1532 1533 1533 1534 1535 1536 1536 1536
1488 1486 1479 1476 1477 1478 1481 1489 1498 1508 1513 1511 1508 1505 1504 1503 1502 1504 1510 1514 1512 1511 1511 1511 1511 1512 1513 1512 1512 1513 1514 1515 1517 1519 1519 1520 1520 1521 1521 1521 1520 1521 1521 1520 1521 1521 1520 1520 1520 1520 1520 1520 1520 1520 1519 1520 1520 1519 1519 1519 1519 1520 1521 1522 1523 1524 1524 1524 1525 1525 1526 1527 1528 1528 1529 1530 1531 1532 1532 1533 1534 1535 1535 1536 1536 1536
1491 1488 1487 1490 1487 1481 1482 1491 1500 1510 1515 1512 1508 1506 1505 1506 1510 1514 1516 1514 1512 1513 1513 1512 1513 1514 1513 1514 1514 1515 1517 1518 1520 1521 1521 1522 1523 1522 1523 1523 1523 1523 1523 1523 1523 1523 1523 1523 1523 1523 1523 1522 1522 1522 1522 1522 1522 1521 1521 1521 1521 1522 1523 1524 1525 1525 1525 1526 1526 1526 1527 1528 1528 1529 1529 1530 1531 1531 1532 1533 1534 1534 1535 1535 1536 1536
1495 1488 1489 1498 1498 1490 1494 1506 1514 1519 1519 1515 1513 1513 1513 1514 1516 1515 1515 1514 1515 1515 1514 1514 1515 1515 1515 1516 1517 1518 1520 1521 1522 1523 1523 1524 1525 1525 1525 1525 1525 1525 1525 1525 1525 1525 1526 1526 1525 1525 1525 1524 1524 1524 1524 1524 1524 1524 1523 1523 1523 1524 1524 1525 1526 1526 1526 1526 1526 1527 1527 1528 1528 1529 1529 1529 1530 1531 1531 1532 1533 1533 1534 1534 1535 1535
1502 1498 1496 1503 1506 1504 1509 1518 1521 1521 1519 1517 1517 1517 1517 1517 1516 1515 1516 1516 1516 1516 1516 1516 1517 1517 1518 1519 1519 1521 1522 1523 1524 1525 1525 1526 1527 1527 1527 1527 1527 1527 1528 1528 1528 1528 1528 1528 1528 1527 1527 1526 1526 1526 1526 1526 1527 1527 1526 1526 1526 1526 1526 1526 1527 1527 1527 1527 1526 1527 1527 1527 1528 1529 1529 1529 1530 1530 1531 1531 1532 1532 1533 1533 1533 1534
1506 1504 1502 1505 1508 1511 1516 1520 1520 1519 1520 1519 1519 1519 1518 1518 1518 1517 1517 1517 1517 1518 1519 1519 1519 1520 1521 1522 1522 1523 1525 1526 1527 1527 1527 1528 1529 1529 1529 1530 1529 1530 1530 1531 1531 1531 1531 1531 1531 1530 1529 1529 1528 1528 1528 1529 1529 1528 1528 1528 1528 1528 1528 1528 1528 1528 1528 1528 1527 1527 1528 1528 1528 1529 1529 1529 1530 1530 1530 1531 1531 1531 1532 1532 1533 1533
1505 1504 1504 1506 1507 1511 1517 1521 1519 1519 1520 1520 1520 1521 1520 1520 1520 1519 1519 1520 1521 1521 1521 1522 1523 1523 1524 1525 1526 1526 1527 1529 1529 1529 1530 1530 1530 1531 1531 1531 1532 1532 1533 1533 1534 1534 1534 1534 1533 1532 1532 1531 1530 1530 1530 1530 1530 1530 1530 1529 1529 1529 1529 1529 1530 1530 1529 1529 1529 1529 1529 1529 1529 1529 1529 1530 1530 1530 1530 1530 1531 1531 1531 1531 1532 1531
1505 1504 1504 1507 1509 1513 1518 1521 1520 1520 1522 1522 1522 1523 1523 1523 1523 1522 1522 1522 1523 1524 1525 1525 1526 1526 1527 1528 1528 1528 1529 1531 1531 1532 1532 1532 1532 1533 1533 1533 1533 1534 1534 1535 1535 1535 1536 1535 1535 1534 1533 1533 1532 1532 1532 1531 1531 1531 1531 1531 1531 1531 1530 1530 1530 1530 1530 1530 1530 1530 1530 1530 1530 1530 1530 1531 1531 1531 1531 1530 1530 1530 1530 1531 1531 1531
1506 1506 1507 1509 1513 1516 1518 1520 1520 1521 1523 1524 1524 1525 1526 1526 1526 1525 1525 1525 1526 1526 1527 1528 1528 1529 1530 1530 1531 1531 1531 1532 1533 1534 1534 1534 1534 1534 1534 1534 1535 1535 1535 1536 1536 1536 1536 1537 1536 1536 1535 1535 1534 1534 1533 1533 1533 1533 1532 1532 1532 1531 1531 1531 1531 1531 1531 1531 1531 1531 1530 1530 1530 1531 1531 1531 1531 1531 1530 1530 1530 1530 1530 1531 1531 1531
1507 1508 1508 1508 1511 1516 1519 1520 1520 1520 1523 1526 1527 1527 1528 1528 1528 1528 1529 1529 1528 1528 1529 1529 1530 1531 1532 1532 1533 1533 1534 1534 1535 1535 1536 1536 1536 1536 1536 1536 1536 1536 1536 1536 1536 1537 1537 1537 1537 1537 1537 1536 1536 1535 1535 1535 1534 1533 1533 1533 1532 1532 1532 1532 1532 1532 1532 1531 1531 1531 1532 1531 1531 1531 1531 1531 1531 1531 1531 1531 1531 1531 1531 1531 1531 1531
1512 1512 1510 1509 1514 1518 1520 1521 1521 1521 1524 1527 1529 1529 1530 1530 1530 1530 1531 1531 1531 1532 1531 1531 1532 1532 1533 1534 1534 1535 1535 1536 1536 1537 1538 1538 1538 1538 1537 1537 1537 1537 1537 1537 1537 1538 1538 1538 1538 1538 1537 1537 1537 1537 1536 1536 1535 1535 1534 1533 1533 1533 1533 1533 1533 1533 1533 1532 1532 1532 1532 1533 1532 1532 1532 1532 1531 1532 1532 1532 1532 1532 1531 1531 1530 1530